• în Republica Moldova
  • Lista ţărilor
  • Pe 7 zile
  • Temperatura apei
  • Hartă satelitară
  • Meteo pe hartă
  • Widget-uri
  • user-avatar
    Intrare

    Meteo pe oră la Jelnica

    Astăzi, 21 Iunie, Joi

    Timp Temperatura Precipitaţii Vânt Presiune Umiditate
    00:00 +21°C° 0 mm 2 m/s 750 mmHg 70%
    01:00 +21°C° 0 mm 2 m/s 750 mmHg 70%
    02:00 +21°C° 0 mm 2 m/s 750 mmHg 68%
    03:00 +21°C° 0 mm 2 m/s 750 mmHg 68%
    04:00 +21°C° 0 mm 2 m/s 749 mmHg 69%
    05:00 +21°C° 0 mm 2 m/s 749 mmHg 69%
    06:00 +21°C° 0 mm 3 m/s 749 mmHg 70%
    07:00 +22°C° 0 mm 3 m/s 749 mmHg 70%
    08:00 +24°C° 0 mm 3 m/s 748 mmHg 70%
    09:00 +25°C° 0 mm 4 m/s 747 mmHg 65%
    10:00 +26°C° 0 mm 4 m/s 747 mmHg 60%
    11:00 +28°C° 0 mm 4 m/s 746 mmHg 55%
    12:00 +29°C° 0 mm 5 m/s 746 mmHg 54%
    13:00 +29°C° 0 mm 5 m/s 745 mmHg 52%
    14:00 +30°C° 0 mm 5 m/s 744 mmHg 51%
    15:00 +29°C° 0,2 mm 5 m/s 744 mmHg 57%
    16:00 +28°C° 0,2 mm 5 m/s 743 mmHg 62%
    17:00 +27°C° 0,2 mm 5 m/s 742 mmHg 68%
    18:00 +27°C° 0,4 mm 5 m/s 741 mmHg 72%
    19:00 +26°C° 0,4 mm 5 m/s 741 mmHg 75%
    20:00 +25°C° 0,4 mm 4 m/s 741 mmHg 79%
    21:00 +23°C° 0,5 mm 5 m/s 741 mmHg 83%
    22:00 +21°C° 0,5 mm 6 m/s 741 mmHg 86%
    23:00 +20°C° 0,5 mm 6 m/s 742 mmHg 90%

    Mâine, 22 Iunie, Vineri

    Timp Temperatura Precipitaţii Vânt Presiune Umiditate
    00:00 +17°C° 0,1 mm 6 m/s 742 mmHg 90%
    01:00 +16°C° 0,1 mm 6 m/s 743 mmHg 89%
    02:00 +14°C° 0,1 mm 6 m/s 744 mmHg 89%
    03:00 +13°C° 0 mm 5 m/s 744 mmHg 88%
    04:00 +13°C° 0 mm 5 m/s 745 mmHg 86%
    05:00 +12°C° 0 mm 4 m/s 745 mmHg 85%
    06:00 +12°C° 0 mm 5 m/s 746 mmHg 81%
    07:00 +12°C° 0 mm 5 m/s 746 mmHg 77%
    08:00 +13°C° 0 mm 6 m/s 747 mmHg 74%
    09:00 +14°C° 0 mm 6 m/s 747 mmHg 67%
    10:00 +14°C° 0 mm 5 m/s 747 mmHg 61%
    11:00 +15°C° 0 mm 5 m/s 747 mmHg 54%
    12:00 +16°C° 0 mm 5 m/s 747 mmHg 50%
    13:00 +17°C° 0 mm 6 m/s 747 mmHg 47%
    14:00 +19°C° 0 mm 6 m/s 747 mmHg 43%
    15:00 +19°C° 0 mm 5 m/s 747 mmHg 44%
    16:00 +19°C° 0 mm 5 m/s 747 mmHg 46%
    17:00 +17°C° 0 mm 5 m/s 747 mmHg 47%
    18:00 +17°C° 0 mm 4 m/s 747 mmHg 53%
    19:00 +16°C° 0 mm 3 m/s 747 mmHg 58%
    20:00 +14°C° 0 mm 3 m/s 747 mmHg 64%
    21:00 +13°C° 0 mm 3 m/s 747 mmHg 66%
    22:00 +12°C° 0 mm 3 m/s 747 mmHg 68%
    23:00 +11°C° 0 mm 3 m/s 747 mmHg 71%

    Poimâine, 23 Iunie, Sâmbătă

    Timp Temperatura Precipitaţii Vânt Presiune Umiditate
    00:00 +11°C° 0 mm 3 m/s 747 mmHg 73%
    01:00 +10°C° 0 mm 3 m/s 747 mmHg 76%
    02:00 +10°C° 0 mm 3 m/s 747 mmHg 79%
    03:00 +9°C° 0 mm 3 m/s 747 mmHg 82%
    04:00 +9°C° 0 mm 3 m/s 747 mmHg 86%
    05:00 +8°C° 0 mm 3 m/s 747 mmHg 89%
    06:00 +10°C° 0 mm 3 m/s 747 mmHg 82%
    07:00 +12°C° 0 mm 3 m/s 747 mmHg 75%
    08:00 +14°C° 0 mm 3 m/s 747 mmHg 68%
    09:00 +15°C° 0,2 mm 4 m/s 747 mmHg 64%
    10:00 +17°C° 0,2 mm 4 m/s 747 mmHg 59%
    11:00 +19°C° 0,2 mm 4 m/s 746 mmHg 55%
    12:00 +17°C° 0,5 mm 5 m/s 746 mmHg 60%
    13:00 +17°C° 0,5 mm 5 m/s 746 mmHg 64%
    14:00 +16°C° 0,5 mm 6 m/s 746 mmHg 68%
    15:00 +16°C° 0,4 mm 5 m/s 746 mmHg 69%
    16:00 +16°C° 0,4 mm 5 m/s 746 mmHg 69%
    17:00 +16°C° 0,4 mm 5 m/s 746 mmHg 69%
    18:00 +15°C° 0,5 mm 5 m/s 746 mmHg 74%
    19:00 +14°C° 0,5 mm 4 m/s 746 mmHg 80%
    20:00 +13°C° 0,5 mm 4 m/s 746 mmHg 85%
    21:00 +12°C° 0,2 mm 4 m/s 746 mmHg 88%
    22:00 +12°C° 0,2 mm 3 m/s 746 mmHg 91%
    23:00 +11°C° 0,2 mm 3 m/s 746 mmHg 94%

    24 Iunie, Duminică

    Timp Temperatura Precipitaţii Vânt Presiune Umiditate
    00:00 +11°C° 0,1 mm 3 m/s 746 mmHg 95%
    01:00 +11°C° 0,1 mm 3 m/s 746 mmHg 95%
    02:00 +10°C° 0,1 mm 3 m/s 746 mmHg 96%
    03:00 +10°C° 0 mm 3 m/s 746 mmHg 96%
    04:00 +10°C° 0 mm 3 m/s 747 mmHg 96%
    05:00 +9°C° 0 mm 3 m/s 747 mmHg 97%
    06:00 +11°C° 0 mm 3 m/s 747 mmHg 90%
    07:00 +12°C° 0 mm 3 m/s 747 mmHg 84%
    08:00 +13°C° 0 mm 3 m/s 747 mmHg 78%
    09:00 +15°C° 0,3 mm 4 m/s 747 mmHg 73%
    10:00 +17°C° 0,3 mm 4 m/s 747 mmHg 68%
    11:00 +18°C° 0,3 mm 4 m/s 748 mmHg 63%
    12:00 +17°C° 0,6 mm 5 m/s 748 mmHg 64%
    13:00 +17°C° 0,6 mm 5 m/s 748 mmHg 64%
    14:00 +17°C° 0,6 mm 5 m/s 748 mmHg 65%
    15:00 +17°C° 0,3 mm 5 m/s 748 mmHg 64%
    16:00 +19°C° 0,3 mm 5 m/s 748 mmHg 63%
    17:00 +19°C° 0,3 mm 4 m/s 748 mmHg 62%
    18:00 +18°C° 0,2 mm 4 m/s 748 mmHg 67%
    19:00 +17°C° 0,2 mm 3 m/s 748 mmHg 73%
    20:00 +16°C° 0,2 mm 2 m/s 748 mmHg 78%
    21:00 +15°C° 0 mm 2 m/s 749 mmHg 81%
    22:00 +13°C° 0 mm 2 m/s 749 mmHg 84%
    23:00 +12°C° 0 mm 2 m/s 749 mmHg 87%

    25 Iunie, Luni

    Timp Temperatura Precipitaţii Vânt Presiune Umiditate
    00:00 +12°C° 0 mm 2 m/s 749 mmHg 88%
    01:00 +11°C° 0 mm 1 m/s 750 mmHg 88%
    02:00 +11°C° 0 mm 1 m/s 750 mmHg 89%
    03:00 +11°C° 0 mm 1 m/s 750 mmHg 89%
    04:00 +11°C° 0 mm 1 m/s 750 mmHg 88%
    05:00 +11°C° 0 mm 1 m/s 750 mmHg 88%
    06:00 +13°C° 0 mm 1 m/s 750 mmHg 81%
    07:00 +15°C° 0 mm 1 m/s 751 mmHg 75%
    08:00 +18°C° 0 mm 1 m/s 751 mmHg 68%
    09:00 +18°C° 0,2 mm 2 m/s 751 mmHg 62%
    10:00 +19°C° 0,2 mm 2 m/s 751 mmHg 57%
    11:00 +21°C° 0,2 mm 2 m/s 751 mmHg 52%
    12:00 +21°C° 0,2 mm 2 m/s 751 mmHg 51%
    13:00 +21°C° 0,2 mm 2 m/s 751 mmHg 50%
    14:00 +22°C° 0,2 mm 3 m/s 751 mmHg 49%
    15:00 +22°C° 0,1 mm 3 m/s 751 mmHg 50%
    16:00 +22°C° 0,1 mm 3 m/s 751 mmHg 50%
    17:00 +22°C° 0,1 mm 3 m/s 751 mmHg 51%
    18:00 +20°C° 0,1 mm 2 m/s 751 mmHg 57%
    19:00 +19°C° 0,1 mm 2 m/s 751 mmHg 64%
    20:00 +18°C° 0,1 mm 2 m/s 751 mmHg 70%
    21:00 +18°C° 0,1 mm 1 m/s 752 mmHg 74%
    22:00 +15°C° 0,1 mm 1 m/s 752 mmHg 77%
    23:00 +13°C° 0,1 mm 0 m/s 752 mmHg 81%

    26 Iunie, Marţi

    Timp Temperatura Precipitaţii Vânt Presiune Umiditate
    00:00 +13°C° 0 mm 0 m/s 752 mmHg 81%
    01:00 +13°C° 0 mm 0 m/s 752 mmHg 81%
    02:00 +13°C° 0 mm 1 m/s 752 mmHg 81%
    03:00 +13°C° 0 mm 1 m/s 752 mmHg 82%
    04:00 +13°C° 0 mm 1 m/s 752 mmHg 82%
    05:00 +13°C° 0 mm 1 m/s 752 mmHg 83%
    06:00 +14°C° 0 mm 1 m/s 752 mmHg 78%
    07:00 +16°C° 0 mm 1 m/s 752 mmHg 72%
    08:00 +19°C° 0 mm 1 m/s 752 mmHg 66%
    09:00 +20°C° 0,1 mm 1 m/s 752 mmHg 61%
    10:00 +20°C° 0,1 mm 2 m/s 752 mmHg 56%
    11:00 +21°C° 0,1 mm 2 m/s 752 mmHg 50%
    12:00 +21°C° 0 mm 2 m/s 752 mmHg 48%
    13:00 +23°C° 0 mm 2 m/s 752 mmHg 46%
    14:00 +23°C° 0 mm 2 m/s 752 mmHg 44%
    15:00 +24°C° 0 mm 2 m/s 751 mmHg 44%
    16:00 +24°C° 0 mm 1 m/s 751 mmHg 44%
    17:00 +24°C° 0 mm 1 m/s 751 mmHg 43%
    18:00 +23°C° 0 mm 1 m/s 751 mmHg 49%
    19:00 +21°C° 0 mm 1 m/s 751 mmHg 56%
    20:00 +19°C° 0 mm 2 m/s 751 mmHg 62%
    21:00 +18°C° 0 mm 2 m/s 751 mmHg 65%
    22:00 +17°C° 0 mm 2 m/s 751 mmHg 68%
    23:00 +15°C° 0 mm 2 m/s 751 mmHg 71%
    Arată mai mult